QPF
0.00 0.00 0.00 0.00 0.00 0.00 0.00 0.00 0.00 0.00 0.00 0.00 0.00 0.00 0.00 0.00 0.00 0.00 0.00 0.00 0.00 0.00 0.00 0.00 0.00 0.00 0.00 0.00 0.00 0.00 0.00 0.00 0.00 0.00 0.00 0.00 0.00 0.00 0.00 0.00 0.00 0.00
0.00 0.00 0.00 0.00 0.00 0.00 0.00 0.00 0.00 0.00 0.00 0.00 0.00 0.00 0.00 0.00 0.00 0.00 0.00 0.00 0.00 0.00 0.00 0.00 0.00 0.00 0.00 0.00 0.00 0.00 0.00 0.00 0.00 0.00 0.00 0.00 0.00 0.00 0.00 0.00 0.00 0.00
0.00 0.00 0.00 0.00 0.00 0.00 0.00 0.00 0.00 0.00 0.00 0.00 0.00 0.00 0.00 0.00 0.00 0.00 0.00 0.00 0.00 0.00 0.00 0.00 0.00 0.00 0.00 0.00 0.00 0.00 0.00 0.00 0.00 0.00 0.00 0.00 0.00 0.00 0.00 0.00 0.00 0.00
0.00 0.00 0.00 0.00 0.00 0.00 0.00 0.00 0.00 0.00 0.00 0.00 0.00 0.00 0.00 0.00 0.00 0.00 0.00 0.00 0.00 0.00 0.00 0.00 0.00 0.00 0.00 0.00 0.00 0.00 0.00 0.00 0.00 0.00 0.00 0.00 0.00 0.00 0.00 0.00 0.00 0.00
0.00 0.01 0.05 0.04 0.02 0.00 0.00 0.00 0.00 0.00 0.00 0.00 0.00 0.00 0.00 0.00 0.00 0.00 0.00 0.00 0.00 0.00 0.00 0.00 0.00 0.00 0.00 0.00 0.00 0.00 0.00 0.00 0.00 0.00 0.00 0.00 0.00 0.00 0.00 0.00 0.00 0.00
0.00 0.07 0.20 0.26 0.12 0.19 0.03 0.00 0.00 0.00 0.00 0.00 0.00 0.00 0.00 0.00 0.00 0.00 0.00 0.00 0.00 0.00 0.00 0.00 0.00 0.00 0.00 0.00 0.00 0.00 0.00 0.00 0.00 0.00 0.00 0.00 0.00 0.00 0.00 0.00 0.00 0.00
0.03 0.00 0.00 0.01 0.04 0.01 0.00 0.00 0.00 0.00 0.00 0.00 0.00 0.00 0.00 0.00 0.00 0.00 0.00 0.00 0.00 0.00 0.03 0.03 0.00 0.00 0.00 0.00 0.00 0.00 0.00 0.00 0.00 0.00 0.00 0.00 0.00 0.00 0.00 0.00 0.00 0.00
0.00 0.00 0.00 0.00 0.00 0.00 0.00 0.00 0.00 0.00 0.01 0.00 0.00 0.00 0.00 0.00 0.00 0.00 0.00 0.00 0.00 0.00 0.00 0.00 0.00 0.00 0.00 0.00 0.00 0.00 0.00 0.00 0.00 0.00 0.00 0.00 0.00 0.00 0.00 0.00 0.00 0.00
0.00 0.00 0.00 0.00 0.00 0.05 0.00 0.00 0.05 0.00 0.00 0.00 0.00 0.00 0.03 0.01 0.01 0.00 0.00 0.00 0.00 0.00 0.00 0.00 0.00 0.00 0.00 0.00 0.00 0.00 0.00 0.00 0.00 0.00 0.00 0.00 0.00 0.00 0.03 0.03 0.01 0.10
0.00 0.00 0.00 0.00 0.00 0.00 0.00 0.00 0.00 0.00 0.00 0.01 0.14 0.11 0.08 0.02 0.07 0.00 0.00 0.00 0.00 0.00 0.00 0.02 0.00 0.00 0.00 0.00 0.00 0.00 0.00 0.00 0.00 0.00 0.00 0.02 0.04 0.01 0.01 0.01 0.02 0.13
0.02 0.02 0.01 0.01 0.00 0.00 0.00 0.00 0.00 0.01 0.17 0.51 0.52 0.28 0.22 0.60 0.20 0.00 0.03 0.00 0.01 0.01 0.07 0.08 0.14 0.09 0.00 0.00 0.00 0.00 0.00 0.00 0.00 0.00 0.05 0.23 0.05 0.01 0.01 0.01 0.02 0.03
0.01 0.01 0.01 0.01 0.01 0.00 0.00 0.00 0.01 0.19 0.26 0.56 0.58 0.51 0.58 0.48 0.29 0.07 0.00 0.02 0.00 0.00 0.14 0.26 0.26 0.11 0.02 0.02 0.01 0.00 0.00 0.00 0.00 0.08 0.17 0.02 0.00 0.00 0.00 0.01 0.02 0.02
0.01 0.00 0.00 0.00 0.01 0.00 0.00 0.00 0.09 0.12 0.17 0.77 0.69 0.77 0.69 0.82 1.05 0.31 0.00 0.00 0.02 0.01 0.04 0.05 0.00 0.00 0.01 0.01 0.03 0.01 0.00 0.00 0.00 0.01 0.00 0.00 0.00 0.00 0.00 0.01 0.01 0.01
0.00 0.00 0.00 0.00 0.00 0.00 0.00 0.00 0.12 0.07 0.08 0.62 0.59 0.51 0.51 0.96 1.06 0.44 0.20 0.03 0.01 0.00 0.00 0.00 0.00 0.04 0.20 0.10 0.00 0.00 0.00 0.00 0.00 0.00 0.00 0.00 0.00 0.00 0.00 0.00 0.00 0.00
0.00 0.00 0.00 0.00 0.00 0.00 0.00 0.00 0.07 0.42 0.51 0.82 1.19 0.72 0.32 0.36 0.73 0.16 0.10 0.09 0.06 0.03 0.01 0.00 0.00 0.02 0.07 0.01 0.00 0.00 0.00 0.00 0.00 0.00 0.00 0.00 0.00 0.00 0.00 0.00 0.00 0.01
0.00 0.00 0.00 0.00 0.00 0.00 0.00 0.00 0.01 0.14 0.25 0.77 0.61 0.23 0.15 0.32 0.31 0.05 0.07 0.03 0.02 0.01 0.01 0.05 0.25 0.03 0.01 0.00 0.00 0.00 0.00 0.00 0.00 0.00 0.00 0.00 0.00 0.00 0.00 0.01 0.03 0.01
0.01 0.06 0.08 0.00 0.00 0.21 0.77 0.01 0.04 0.16 0.29 0.21 0.21 0.45 0.12 0.15 0.20 0.13 0.04 0.02 0.00 0.00 0.00 0.14 0.10 0.00 0.00 0.00 0.00 0.00 0.01 0.00 0.00 0.00 0.00 0.00 0.01 0.00 0.00 0.02 0.01 0.00
0.61 0.54 0.49 0.41 0.04 0.16 0.24 0.00 0.05 0.03 0.00 0.00 0.01 0.02 0.03 0.03 0.04 0.02 0.03 0.03 0.01 0.01 0.00 0.00 0.00 0.00 0.00 0.00 0.00 0.00 0.00 0.02 0.00 0.00 0.00 0.00 0.00 0.00 0.00 0.00 0.00 0.00
0.33 0.51 0.50 0.49 0.72 0.95 0.64 0.92 0.40 0.20 0.09 0.00 0.00 0.00 0.00 0.00 0.00 0.00 0.02 0.04 0.01 0.00 0.00 0.00 0.00 0.00 0.00 0.00 0.00 0.00 0.00 0.00 0.00 0.00 0.00 0.00 0.00 0.00 0.00 0.00 0.00 0.00
0.56 1.04 1.07 1.19 0.97 0.72 0.87 0.86 0.70 0.38 0.03 0.01 0.01 0.00 0.00 0.00 0.00 0.01 0.01 0.01 0.00 0.00 0.00 0.00 0.00 0.00 0.00 0.00 0.00 0.00 0.00 0.00 0.00 0.00 0.00 0.00 0.00 0.00 0.00 0.00 0.00 0.00
1.26 1.14 1.07 0.79 0.80 0.80 0.67 0.71 0.71 0.60 0.29 0.12 0.07 0.03 0.02 0.03 0.00 0.00 0.00 0.00 0.00 0.00 0.00 0.00 0.00 0.00 0.00 0.00 0.00 0.00 0.00 0.00 0.00 0.00 0.00 0.00 0.00 0.00 0.00 0.00 0.00 0.00
0.61 0.59 0.31 0.79 0.78 0.64 0.53 0.20 0.14 0.13 0.14 0.17 0.12 0.06 0.03 0.01 0.00 0.00 0.00 0.00 0.00 0.00 0.00 0.00 0.00 0.00 0.00 0.00 0.00 0.00 0.00 0.00 0.00 0.00 0.00 0.00 0.00 0.00 0.00 0.00 0.00 0.00
0.67 0.58 0.74 1.05 0.54 0.17 0.08 0.07 0.06 0.05 0.03 0.03 0.05 0.05 0.02 0.03 0.01 0.01 0.00 0.00 0.00 0.00 0.00 0.00 0.00 0.00 0.00 0.00 0.00 0.00 0.00 0.00 0.00 0.00 0.01 0.00 0.00 0.00 0.00 0.00 0.00 0.00
0.62 0.56 0.44 0.09 0.07 0.07 0.05 0.03 0.05 0.02 0.02 0.01 0.01 0.01 0.01 0.01 0.00 0.01 0.01 0.00 0.00 0.00 0.00 0.00 0.00 0.00 0.00 0.00 0.00 0.00 0.00 0.00 0.00 0.00 0.00 0.00 0.00 0.00 0.00 0.00 0.00 0.00
0.10 0.17 0.07 0.05 0.02 0.03 0.03 0.01 0.01 0.00 0.00 0.01 0.01 0.02 0.01 0.07 0.02 0.02 0.00 0.00 0.00 0.00 0.00 0.00 0.00 0.00 0.00 0.00 0.00 0.00 0.00 0.00 0.00 0.00 0.00 0.00 0.00 0.00 0.00 0.00 0.00 0.00
0.04 0.02 0.05 0.02 0.24 0.31 0.22 0.11 0.01 0.00 0.00 0.00 0.00 0.10 0.10 0.24 0.31 0.28 0.13 0.03 0.00 0.05 0.00 0.00 0.00 0.00 0.00 0.00 0.00 0.00 0.00 0.00 0.00 0.00 0.00 0.00 0.00 0.00 0.00 0.00 0.00 0.00
MSLP
1012.17 1012.37 1012.61 1012.77 1012.93 1012.93 1013.05 1013.21 1013.21 1013.33 1013.37 1013.45 1013.77 1013.77 1013.73 1013.61 1013.61 1013.77 1013.85 1013.97 1014.09 1014.21 1014.33 1014.41 1014.41 1014.53 1014.53 1014.57 1014.65 1014.77 1014.89 1014.93 1014.89 1014.77 1014.89 1014.97 1015.17 1015.25 1015.37 1015.25 1015.21 1015.21
1011.93 1012.09 1012.25 1012.45 1012.65 1012.69 1012.73 1012.73 1012.89 1013.01 1013.21 1013.21 1013.25 1013.33 1013.33 1013.37 1013.45 1013.53 1013.69 1013.85 1013.89 1014.01 1014.01 1014.17 1014.25 1014.33 1014.41 1014.53 1014.57 1014.73 1014.77 1014.77 1014.89 1014.57 1014.85 1014.97 1015.05 1015.05 1015.17 1015.17 1015.17 1015.09
1011.77 1012.01 1012.21 1012.45 1012.57 1012.65 1012.65 1012.61 1012.65 1012.73 1012.85 1012.93 1012.93 1013.09 1013.25 1013.17 1013.33 1013.37 1013.45 1013.57 1013.81 1013.81 1013.89 1013.93 1014.05 1014.13 1014.17 1014.25 1014.33 1014.49 1014.57 1014.61 1014.73 1014.57 1014.69 1014.93 1014.89 1015.01 1015.01 1015.01 1015.05 1015.05
1011.49 1011.57 1011.81 1011.97 1012.13 1012.37 1012.41 1012.65 1012.69 1012.69 1012.57 1012.73 1012.85 1012.81 1012.85 1012.93 1013.05 1013.29 1013.37 1013.41 1013.61 1013.69 1013.69 1013.81 1013.89 1013.93 1014.01 1014.05 1014.17 1014.29 1014.29 1014.37 1014.33 1014.37 1014.61 1014.69 1014.73 1014.73 1014.85 1014.77 1014.85 1014.93
1011.05 1011.21 1011.33 1011.53 1011.69 1011.85 1012.09 1012.37 1012.49 1012.53 1012.57 1012.45 1012.41 1012.49 1012.65 1012.77 1012.89 1013.05 1013.21 1013.33 1013.41 1013.53 1013.61 1013.73 1013.73 1013.81 1013.85 1013.97 1014.05 1014.21 1014.21 1014.29 1014.21 1014.33 1014.57 1014.73 1014.61 1014.61 1014.61 1014.69 1014.93 1015.09
1010.61 1010.73 1010.93 1011.17 1011.37 1011.61 1011.85 1011.97 1012.01 1012.17 1012.29 1012.41 1012.37 1012.25 1012.33 1012.41 1012.61 1012.77 1012.89 1013.17 1013.21 1013.33 1013.49 1013.57 1013.69 1013.65 1013.73 1013.89 1013.97 1014.05 1014.17 1014.29 1014.25 1014.29 1014.53 1014.65 1014.61 1014.45 1014.49 1014.61 1014.89 1015.09
1010.41 1010.49 1010.77 1010.89 1011.17 1011.33 1011.61 1011.69 1011.77 1011.81 1011.89 1011.93 1011.97 1012.13 1012.05 1012.25 1012.41 1012.45 1012.53 1012.73 1012.93 1013.17 1013.33 1013.45 1013.57 1013.69 1013.61 1013.77 1013.97 1014.09 1014.13 1014.17 1014.21 1014.29 1014.53 1014.61 1014.57 1014.61 1014.61 1014.69 1014.93 1015.17
1010.01 1010.09 1010.33 1010.61 1010.93 1011.13 1011.33 1011.45 1011.61 1011.73 1011.73 1011.77 1011.93 1011.85 1011.77 1011.93 1012.05 1012.13 1012.17 1012.33 1012.65 1012.89 1012.97 1013.13 1013.29 1013.41 1013.53 1013.69 1014.01 1014.17 1014.25 1014.13 1014.25 1014.37 1014.53 1014.65 1014.61 1014.89 1014.89 1014.85 1015.01 1015.17
1009.77 1010.05 1010.25 1010.57 1010.77 1010.93 1011.13 1011.29 1011.49 1011.53 1011.53 1011.69 1011.81 1011.89 1012.41 1012.61 1012.45 1012.25 1012.05 1012.09 1012.33 1012.53 1012.65 1012.85 1013.01 1013.29 1013.45 1013.65 1013.85 1014.01 1014.21 1014.29 1014.25 1014.29 1014.45 1014.65 1014.81 1014.93 1014.89 1014.85 1015.01 1015.13
1009.81 1009.93 1010.21 1010.49 1010.73 1010.77 1011.13 1011.25 1011.29 1011.45 1011.41 1011.93 1012.73 1013.29 1013.33 1013.33 1013.37 1013.21 1012.41 1012.09 1012.25 1012.41 1012.69 1012.89 1013.09 1013.25 1013.45 1013.53 1013.69 1013.93 1014.13 1014.29 1014.33 1014.37 1014.41 1014.61 1014.81 1014.85 1014.85 1014.89 1015.01 1015.21
1009.81 1010.01 1010.25 1010.45 1010.61 1010.81 1011.13 1011.21 1011.29 1011.77 1012.57 1013.05 1013.37 1013.73 1013.53 1013.01 1013.09 1013.17 1013.01 1012.53 1012.45 1012.61 1012.77 1012.97 1013.09 1013.17 1013.37 1013.57 1013.65 1013.73 1013.93 1014.17 1014.33 1014.45 1014.69 1015.05 1014.89 1014.77 1014.73 1014.85 1015.01 1015.09
1009.73 1010.05 1010.25 1010.37 1010.57 1010.81 1011.05 1011.21 1011.73 1012.57 1012.97 1013.09 1012.73 1012.81 1012.57 1012.05 1012.01 1012.41 1012.81 1013.01 1012.61 1012.49 1012.61 1012.81 1012.93 1013.01 1013.21 1013.41 1013.61 1013.77 1013.97 1014.13 1014.25 1014.61 1014.97 1014.93 1014.81 1014.73 1014.69 1014.81 1014.97 1015.05
1009.57 1009.77 1009.97 1010.25 1010.49 1010.73 1010.89 1011.33 1012.09 1012.33 1012.25 1012.33 1011.89 1011.65 1011.69 1011.73 1011.81 1012.37 1012.41 1012.53 1012.29 1012.33 1012.61 1012.77 1012.97 1013.13 1013.49 1013.73 1013.93 1013.97 1014.09 1014.25 1014.45 1014.61 1014.73 1014.73 1014.73 1014.69 1014.69 1014.77 1014.85 1014.93
1009.09 1009.33 1009.73 1010.05 1010.37 1010.61 1010.89 1011.33 1011.97 1012.17 1011.97 1011.65 1011.61 1011.61 1011.49 1011.65 1012.21 1012.17 1012.29 1012.41 1012.41 1012.45 1012.53 1012.69 1012.93 1013.41 1013.81 1013.97 1014.05 1014.09 1014.17 1014.33 1014.41 1014.57 1014.77 1014.81 1014.81 1014.73 1014.73 1014.77 1014.77 1014.73
1008.81 1009.17 1009.45 1009.77 1010.09 1010.41 1010.73 1011.13 1011.45 1011.57 1011.49 1011.37 1011.33 1011.37 1011.49 1011.69 1011.65 1011.77 1012.17 1012.41 1012.41 1012.45 1012.65 1012.65 1012.85 1013.29 1013.69 1013.93 1013.93 1014.01 1014.09 1014.33 1014.49 1014.61 1014.77 1014.89 1014.85 1014.77 1014.69 1014.69 1014.69 1014.65
1008.69 1009.09 1009.45 1009.73 1010.09 1010.41 1010.61 1010.77 1010.93 1010.97 1011.05 1011.21 1011.41 1011.41 1011.53 1011.61 1011.77 1011.85 1011.97 1012.25 1012.57 1012.73 1012.85 1013.21 1013.61 1013.45 1013.21 1013.29 1013.49 1013.77 1014.01 1014.21 1014.41 1014.57 1014.69 1014.77 1014.85 1014.89 1014.85 1014.77 1014.73 1014.65
1008.85 1009.33 1009.65 1010.05 1010.29 1010.37 1010.33 1010.45 1010.69 1010.89 1011.21 1011.53 1011.77 1011.81 1011.69 1011.69 1011.85 1012.05 1012.21 1012.37 1012.65 1012.85 1013.13 1013.53 1013.77 1013.29 1013.05 1013.29 1013.41 1013.53 1013.81 1014.13 1014.37 1014.53 1014.57 1014.69 1014.77 1014.89 1015.05 1014.97 1014.81 1014.73
1009.65 1010.29 1010.57 1010.85 1010.73 1010.29 1010.05 1010.37 1010.61 1010.93 1011.29 1011.45 1011.57 1011.65 1011.69 1011.73 1012.05 1012.17 1012.29 1012.49 1012.65 1012.77 1012.97 1013.13 1013.21 1013.13 1013.25 1013.33 1013.45 1013.53 1013.69 1014.01 1014.21 1014.45 1014.53 1014.65 1014.69 1014.77 1014.85 1014.93 1014.97 1015.01
1009.81 1010.01 1010.13 1010.29 1010.09 1010.09 1010.37 1010.45 1010.73 1010.97 1011.21 1011.37 1011.49 1011.41 1011.53 1011.97 1012.13 1012.21 1012.33 1012.41 1012.57 1012.85 1013.13 1013.25 1013.41 1013.41 1013.45 1013.49 1013.53 1013.65 1013.69 1013.85 1014.13 1014.21 1014.41 1014.53 1014.61 1014.69 1014.81 1014.89 1015.01 1015.13
1009.41 1009.25 1009.05 1008.89 1009.53 1010.53 1010.61 1010.61 1010.81 1010.81 1010.85 1011.05 1011.29 1011.45 1011.77 1012.01 1012.05 1012.17 1012.29 1012.49 1012.73 1012.97 1013.29 1013.49 1013.61 1013.69 1013.69 1013.73 1013.77 1013.85 1013.89 1013.93 1014.09 1014.21 1014.29 1014.41 1014.53 1014.61 1014.69 1014.85 1015.05 1015.21
1008.93 1008.65 1008.57 1009.01 1009.89 1010.33 1010.41 1010.37 1010.37 1010.53 1010.89 1011.09 1011.29 1011.53 1011.73 1011.81 1011.89 1012.09 1012.29 1012.49 1012.81 1013.13 1013.45 1013.73 1013.81 1013.97 1014.01 1014.01 1014.01 1014.09 1014.17 1014.01 1014.13 1014.21 1014.41 1014.57 1014.65 1014.69 1014.81 1014.97 1015.13 1015.25
1008.49 1008.81 1009.09 1009.33 1009.77 1010.09 1010.21 1010.49 1010.61 1010.69 1010.89 1010.97 1011.17 1011.37 1011.37 1011.45 1011.61 1011.77 1012.17 1012.57 1012.93 1013.21 1013.53 1013.85 1014.09 1014.21 1014.17 1014.13 1014.17 1014.25 1014.05 1014.01 1014.13 1014.33 1014.65 1014.93 1015.09 1015.17 1015.21 1015.29 1015.33 1015.41
1008.69 1008.73 1008.93 1009.17 1009.77 1010.25 1010.45 1010.57 1010.69 1010.73 1010.81 1010.77 1011.13 1011.21 1011.33 1011.45 1011.61 1011.81 1012.05 1012.49 1012.93 1013.25 1013.53 1013.89 1014.05 1014.17 1014.09 1014.09 1014.13 1013.97 1013.85 1013.97 1014.21 1014.69 1015.05 1015.37 1015.61 1015.57 1015.61 1015.61 1015.65 1015.73
1009.01 1008.89 1008.97 1009.25 1009.85 1010.25 1010.45 1010.49 1010.49 1010.57 1010.73 1010.61 1010.89 1011.13 1011.29 1011.33 1011.45 1011.81 1012.05 1012.33 1012.77 1013.17 1013.41 1013.73 1013.93 1013.97 1014.01 1013.97 1013.81 1013.69 1013.61 1013.93 1014.41 1014.93 1015.41 1015.65 1015.85 1015.81 1015.73 1015.73 1015.69 1015.77
1008.89 1008.77 1008.81 1009.09 1009.73 1010.33 1010.53 1010.53 1010.53 1010.57 1010.57 1010.61 1010.73 1010.81 1010.97 1011.17 1011.41 1011.81 1012.13 1012.41 1012.69 1013.05 1013.33 1013.61 1013.81 1013.93 1013.93 1013.69 1013.53 1013.45 1013.57 1013.89 1014.37 1014.97 1015.57 1015.89 1015.93 1016.13 1016.13 1016.13 1016.13 1016.05
1008.53 1008.57 1008.69 1009.01 1009.45 1009.97 1010.73 1011.05 1010.65 1010.49 1010.57 1010.61 1010.69 1010.89 1011.13 1011.45 1012.05 1012.49 1012.73 1012.85 1012.89 1013.17 1013.45 1013.65 1013.81 1013.97 1013.89 1013.65 1013.49 1013.53 1013.61 1013.93 1014.37 1015.01 1015.65 1015.97 1016.01 1016.09 1016.33 1016.41 1016.45 1016.53
Thickness
5808 5807 5806 5805 5805 5806 5806 5806 5806 5805 5804 5804 5803 5803 5803 5803 5803 5802 5801 5801 5800 5800 5799 5799 5798 5798 5797 5797 5796 5795 5793 5792 5793 5793 5793 5791 5789 5789 5787 5787 5787 5786
5807 5806 5805 5804 5803 5804 5805 5806 5806 5805 5804 5804 5804 5804 5804 5803 5802 5802 5801 5801 5800 5800 5800 5799 5799 5798 5797 5797 5796 5794 5794 5793 5792 5792 5791 5789 5788 5787 5786 5785 5785 5784
5806 5805 5803 5802 5802 5801 5802 5804 5805 5805 5805 5804 5804 5803 5802 5802 5801 5801 5801 5800 5800 5800 5799 5799 5799 5798 5798 5797 5796 5795 5794 5792 5792 5792 5790 5788 5787 5786 5785 5785 5783 5783
5806 5805 5804 5803 5802 5802 5802 5802 5801 5802 5803 5803 5803 5803 5802 5802 5801 5799 5799 5799 5799 5799 5799 5798 5798 5798 5798 5797 5796 5794 5794 5793 5793 5793 5790 5787 5788 5786 5785 5784 5782 5782
5807 5806 5806 5804 5804 5803 5802 5801 5800 5801 5801 5800 5801 5801 5801 5801 5800 5799 5798 5798 5798 5798 5797 5796 5796 5797 5796 5796 5795 5794 5793 5793 5793 5792 5789 5787 5788 5786 5785 5783 5780 5779
5807 5806 5805 5804 5803 5803 5801 5801 5800 5800 5799 5799 5800 5800 5800 5800 5799 5799 5798 5798 5797 5797 5795 5794 5794 5795 5795 5794 5794 5793 5793 5791 5790 5789 5787 5786 5786 5785 5784 5782 5779 5776
5806 5805 5805 5804 5803 5802 5801 5801 5800 5799 5799 5798 5799 5799 5799 5799 5798 5798 5799 5798 5797 5795 5794 5793 5793 5793 5794 5793 5792 5790 5790 5788 5787 5786 5784 5784 5783 5782 5781 5780 5777 5774
5807 5806 5805 5803 5802 5801 5800 5799 5798 5797 5798 5797 5798 5798 5798 5797 5797 5798 5799 5799 5797 5795 5794 5794 5793 5792 5791 5790 5788 5786 5786 5785 5785 5784 5782 5781 5780 5777 5777 5777 5774 5772
5805 5805 5804 5801 5800 5799 5798 5797 5795 5795 5796 5795 5794 5794 5792 5791 5792 5795 5798 5799 5798 5796 5794 5794 5792 5791 5790 5788 5786 5784 5783 5783 5783 5782 5780 5778 5777 5775 5774 5773 5771 5769
5803 5802 5800 5798 5798 5796 5794 5793 5792 5793 5791 5787 5784 5783 5783 5785 5786 5788 5793 5797 5796 5794 5793 5792 5791 5790 5788 5787 5785 5783 5782 5780 5780 5779 5778 5776 5774 5773 5772 5770 5768 5766
5799 5797 5796 5795 5794 5792 5791 5789 5788 5785 5780 5778 5781 5780 5782 5788 5789 5787 5788 5790 5791 5792 5791 5790 5790 5789 5787 5785 5783 5782 5781 5779 5778 5776 5774 5772 5771 5771 5770 5768 5766 5764
5795 5794 5792 5791 5790 5788 5787 5784 5779 5777 5774 5777 5785 5787 5787 5793 5796 5790 5786 5785 5788 5792 5790 5789 5789 5788 5786 5783 5781 5781 5779 5777 5776 5773 5770 5769 5769 5769 5768 5766 5763 5761
5793 5791 5790 5788 5786 5784 5783 5778 5774 5775 5777 5780 5787 5792 5793 5794 5792 5787 5785 5786 5788 5790 5788 5787 5787 5784 5781 5779 5778 5778 5776 5774 5773 5771 5769 5768 5768 5767 5766 5764 5762 5760
5791 5790 5788 5785 5782 5780 5779 5775 5772 5775 5779 5782 5786 5791 5790 5788 5787 5785 5785 5785 5787 5787 5786 5786 5784 5780 5776 5775 5774 5775 5773 5771 5771 5769 5767 5766 5765 5765 5764 5762 5761 5760
5788 5785 5784 5782 5780 5780 5777 5775 5774 5776 5781 5784 5785 5786 5785 5785 5786 5786 5784 5783 5784 5784 5783 5782 5780 5778 5775 5774 5773 5773 5771 5769 5768 5766 5765 5763 5762 5762 5761 5760 5759 5759
5782 5779 5778 5777 5777 5778 5777 5777 5778 5781 5782 5781 5780 5781 5781 5783 5784 5784 5782 5781 5780 5779 5777 5775 5772 5774 5776 5775 5773 5771 5769 5766 5764 5763 5762 5761 5759 5759 5757 5757 5757 5756
5772 5769 5770 5771 5773 5777 5780 5780 5780 5779 5777 5774 5774 5776 5778 5779 5779 5778 5778 5777 5775 5774 5772 5769 5768 5771 5774 5772 5771 5770 5767 5764 5762 5761 5760 5758 5757 5756 5754 5754 5754 5754
5765 5763 5762 5764 5769 5775 5778 5777 5775 5773 5771 5770 5771 5773 5774 5775 5774 5773 5772 5772 5771 5771 5769 5767 5768 5769 5769 5768 5768 5767 5765 5763 5761 5759 5758 5757 5756 5755 5753 5752 5751 5750
5762 5763 5765 5768 5772 5772 5772 5772 5770 5769 5768 5768 5769 5771 5771 5770 5769 5769 5768 5767 5767 5766 5764 5764 5764 5764 5764 5764 5764 5763 5762 5761 5759 5758 5757 5756 5755 5754 5752 5750 5749 5748
5764 5769 5774 5777 5772 5765 5764 5767 5767 5767 5767 5767 5767 5767 5767 5766 5765 5765 5765 5763 5763 5761 5759 5759 5758 5758 5759 5759 5758 5758 5758 5758 5757 5756 5756 5754 5753 5752 5750 5749 5748 5746
5769 5774 5776 5773 5765 5759 5761 5765 5766 5767 5767 5766 5766 5765 5765 5765 5765 5763 5762 5760 5759 5757 5754 5753 5752 5752 5753 5753 5754 5753 5753 5754 5754 5754 5752 5750 5750 5749 5747 5746 5745 5743
5771 5771 5770 5766 5762 5760 5762 5763 5764 5765 5765 5764 5764 5764 5764 5765 5764 5762 5760 5757 5755 5753 5751 5749 5748 5748 5749 5750 5750 5749 5750 5751 5751 5749 5747 5745 5743 5743 5743 5742 5741 5740
5763 5763 5765 5764 5761 5758 5758 5758 5759 5761 5762 5763 5762 5762 5763 5762 5761 5760 5757 5755 5752 5751 5749 5746 5745 5746 5747 5747 5747 5748 5750 5750 5748 5745 5741 5739 5737 5737 5738 5737 5736 5735
5757 5760 5762 5761 5758 5755 5754 5755 5756 5755 5757 5759 5759 5760 5760 5759 5758 5756 5754 5752 5751 5749 5747 5745 5744 5745 5745 5746 5747 5749 5750 5748 5745 5741 5737 5734 5733 5733 5734 5734 5732 5731
5757 5760 5762 5761 5757 5753 5750 5750 5753 5754 5755 5756 5757 5757 5757 5755 5753 5750 5748 5748 5747 5745 5744 5743 5742 5743 5744 5745 5747 5748 5749 5747 5743 5738 5733 5729 5729 5729 5729 5729 5728 5727
5760 5762 5761 5759 5756 5752 5748 5747 5749 5752 5753 5754 5755 5755 5753 5750 5746 5743 5741 5742 5742 5741 5740 5740 5739 5739 5740 5743 5744 5745 5746 5744 5740 5734 5730 5727 5726 5727 5725 5723 5723 5721